Time,TemperatureF,DewpointF,PressureIn,WindDirection,WindDirectionDegrees,WindSpeedMPH,WindSpeedGustMPH,Humidity,HourlyPrecipIn,Conditions,Clouds,dailyrainin,SoftwareType,DateUTC
2013-10-19 00:00:00,45.4,41.8,29.82,West,276,2.0,0.0,87,0.00,,OVC003,0.00,VWS V14.01,2013-10-19 04:00:00,
2013-10-19 00:01:00,45.5,42.5,29.81,West,277,2.0,0.0,89,0.00,,OVC003,0.00,VWS V14.01,2013-10-19 04:01:00,
2013-10-19 00:02:00,45.6,42.5,29.81,West,277,2.0,2.0,89,0.00,,OVC003,0.00,VWS V14.01,2013-10-19 04:02:00,
2013-10-19 00:04:00,45.6,42.5,29.81,West,276,2.0,2.0,89,0.00,,OVC003,0.00,VWS V14.01,2013-10-19 04:04:00,
2013-10-19 00:05:00,45.6,42.5,29.81,West,277,2.0,2.0,89,0.00,,OVC003,0.00,VWS V14.01,2013-10-19 04:05:00,
2013-10-19 00:06:00,45.6,42.5,29.81,West,277,2.0,0.0,89,0.00,,OVC003,0.00,VWS V14.01,2013-10-19 04:06:00,
2013-10-19 00:10:00,45.3,42.0,29.82,West,277,2.0,0.0,88,0.00,,OVC003,0.00,VWS V14.01,2013-10-19 04:10:00,
2013-10-19 00:11:00,45.7,42.7,29.81,West,276,2.0,0.0,89,0.00,,OVC003,0.00,VWS V14.01,2013-10-19 04:11:00,
2013-10-19 00:15:00,45.3,42.0,29.81,West,277,2.0,0.0,88,0.00,,OVC003,0.00,VWS V14.01,2013-10-19 04:15:00,
2013-10-19 00:16:00,45.8,42.8,29.81,West,277,2.0,0.0,89,0.00,,OVC003,0.00,VWS V14.01,2013-10-19 04:16:00,
2013-10-19 00:20:00,45.3,42.0,29.81,West,276,2.0,0.0,88,0.00,,OVC003,0.00,VWS V14.01,2013-10-19 04:20:00,
2013-10-19 00:21:00,45.8,42.8,29.81,West,277,2.0,0.0,89,0.00,,OVC003,0.00,VWS V14.01,2013-10-19 04:21:00,
2013-10-19 00:25:00,45.3,42.0,29.81,West,276,2.0,0.0,88,0.00,,OVC003,0.00,VWS V14.01,2013-10-19 04:25:00,
2013-10-19 00:26:00,45.9,42.8,29.81,West,276,2.0,0.0,89,0.00,,OVC003,0.00,VWS V14.01,2013-10-19 04:26:00,
2013-10-19 00:30:00,45.3,42.0,29.81,West,277,2.0,0.0,88,0.00,,OVC003,0.00,VWS V14.01,2013-10-19 04:30:00,
2013-10-19 00:31:00,45.9,42.5,29.80,West,277,2.0,0.0,88,0.00,,OVC003,0.00,VWS V14.01,2013-10-19 04:31:00,
2013-10-19 00:35:00,46.0,42.7,29.80,WNW,298,2.0,2.0,88,0.00,,OVC003,0.00,VWS V14.01,2013-10-19 04:35:00,
2013-10-19 00:40:00,46.0,42.7,29.80,WNW,298,2.0,2.0,88,0.00,,OVC003,0.00,VWS V14.01,2013-10-19 04:40:00,
2013-10-19 00:45:00,46.1,42.8,29.79,WNW,299,2.0,0.0,88,0.00,,OVC003,0.00,VWS V14.01,2013-10-19 04:45:00,
2013-10-19 00:50:00,46.2,42.8,29.79,WNW,299,2.0,2.0,88,0.00,,OVC003,0.00,VWS V14.01,2013-10-19 04:50:00,
2013-10-19 00:55:00,46.2,42.8,29.79,WNW,299,2.0,0.0,88,0.00,,OVC003,0.00,VWS V14.01,2013-10-19 04:55:00,
2013-10-19 01:00:00,46.3,43.0,29.78,WNW,298,2.0,2.0,88,0.00,,OVC003,0.00,VWS V14.01,2013-10-19 05:00:00,
2013-10-19 01:05:00,46.3,43.0,29.78,WNW,297,2.0,3.0,88,0.00,,OVC003,0.00,VWS V14.01,2013-10-19 05:05:00,
2013-10-19 01:10:00,46.4,43.0,29.78,WNW,297,2.0,2.0,88,0.00,,OVC003,0.00,VWS V14.01,2013-10-19 05:10:00,
2013-10-19 01:15:00,46.4,43.0,29.78,WNW,297,2.0,0.0,88,0.00,,OVC003,0.00,VWS V14.01,2013-10-19 05:15:00,
2013-10-19 01:20:00,46.4,42.8,29.78,WNW,297,2.0,0.0,87,0.00,,OVC003,0.00,VWS V14.01,2013-10-19 05:20:00,
2013-10-19 01:25:00,46.4,43.0,29.78,WNW,297,2.0,0.0,88,0.00,,OVC003,0.00,VWS V14.01,2013-10-19 05:25:00,
2013-10-19 01:30:00,46.3,43.0,29.78,WNW,297,2.0,0.0,88,0.00,,OVC003,0.00,VWS V14.01,2013-10-19 05:30:00,
2013-10-19 01:35:00,46.3,43.0,29.78,WNW,297,2.0,0.0,88,0.00,,OVC003,0.00,VWS V14.01,2013-10-19 05:35:00,
2013-10-19 01:40:00,46.3,43.0,29.78,WNW,297,2.0,0.0,88,0.00,,OVC003,0.00,VWS V14.01,2013-10-19 05:40:00,
2013-10-19 01:45:00,46.3,43.0,29.78,WNW,297,2.0,0.0,88,0.00,,OVC003,0.00,VWS V14.01,2013-10-19 05:45:00,
2013-10-19 01:50:00,46.3,43.0,29.78,WNW,297,2.0,0.0,88,0.00,,OVC003,0.00,VWS V14.01,2013-10-19 05:50:00,
2013-10-19 01:55:00,46.3,43.0,29.78,WNW,297,2.0,0.0,88,0.00,,OVC003,0.00,VWS V14.01,2013-10-19 05:55:00,
2013-10-19 02:00:00,46.3,43.0,29.78,WNW,297,2.0,0.0,88,0.00,,OVC003,0.00,VWS V14.01,2013-10-19 06:00:00,
2013-10-19 02:05:00,46.2,42.8,29.78,WNW,297,2.0,2.0,88,0.00,,OVC003,0.00,VWS V14.01,2013-10-19 06:05:00,
2013-10-19 02:10:00,46.1,42.8,29.78,WNW,297,2.0,0.0,88,0.00,,OVC003,0.00,VWS V14.01,2013-10-19 06:10:00,
2013-10-19 02:15:00,46.2,42.8,29.77,WNW,297,2.0,0.0,88,0.00,,OVC003,0.00,VWS V14.01,2013-10-19 06:15:00,
2013-10-19 02:20:00,46.1,42.8,29.77,WNW,297,2.0,2.0,88,0.00,,OVC003,0.00,VWS V14.01,2013-10-19 06:20:00,
2013-10-19 02:25:00,46.1,43.0,29.77,WNW,297,2.0,0.0,89,0.00,,OVC003,0.00,VWS V14.01,2013-10-19 06:25:00,
2013-10-19 02:30:00,46.1,43.0,29.77,WNW,297,2.0,0.0,89,0.00,,OVC003,0.00,VWS V14.01,2013-10-19 06:30:00,
2013-10-19 02:35:00,46.0,43.0,29.77,WNW,297,2.0,0.0,89,0.00,,OVC003,0.00,VWS V14.01,2013-10-19 06:35:00,
2013-10-19 02:40:00,46.0,43.0,29.77,WNW,297,2.0,0.0,89,0.00,,OVC003,0.00,VWS V14.01,2013-10-19 06:40:00,
2013-10-19 02:45:00,46.0,43.0,29.77,WNW,297,2.0,0.0,89,0.00,,OVC003,0.00,VWS V14.01,2013-10-19 06:45:00,
2013-10-19 02:50:00,45.9,42.8,29.77,WNW,297,2.0,0.0,89,0.00,,OVC003,0.00,VWS V14.01,2013-10-19 06:50:00,
2013-10-19 02:55:00,45.9,42.8,29.77,WNW,297,2.0,0.0,89,0.00,,OVC003,0.00,VWS V14.01,2013-10-19 06:55:00,
2013-10-19 03:00:00,45.9,42.8,29.76,WNW,297,2.0,0.0,89,0.00,,OVC003,0.00,VWS V14.01,2013-10-19 07:00:00,
2013-10-19 03:05:00,45.9,42.8,29.76,WNW,297,3.0,3.0,89,0.00,,OVC003,0.00,VWS V14.01,2013-10-19 07:05:00,
2013-10-19 03:10:00,45.9,42.8,29.76,WNW,297,2.0,2.0,89,0.00,,OVC003,0.00,VWS V14.01,2013-10-19 07:10:00,
2013-10-19 03:15:00,45.9,42.8,29.76,WNW,297,2.0,0.0,89,0.00,,OVC003,0.00,VWS V14.01,2013-10-19 07:15:00,
2013-10-19 03:20:00,45.9,42.8,29.76,WNW,297,2.0,0.0,89,0.00,,OVC003,0.00,VWS V14.01,2013-10-19 07:20:00,
2013-10-19 03:25:00,45.9,42.8,29.76,WNW,297,2.0,0.0,89,0.00,,OVC003,0.00,VWS V14.01,2013-10-19 07:25:00,
2013-10-19 03:30:00,46.0,43.0,29.76,WNW,297,2.0,0.0,89,0.00,,OVC003,0.00,VWS V14.01,2013-10-19 07:30:00,
2013-10-19 03:35:00,46.0,43.0,29.76,WNW,297,2.0,0.0,89,0.00,,OVC003,0.00,VWS V14.01,2013-10-19 07:35:00,
2013-10-19 03:40:00,46.0,43.0,29.76,WNW,297,2.0,0.0,89,0.00,,OVC003,0.00,VWS V14.01,2013-10-19 07:40:00,
2013-10-19 03:45:00,46.0,43.0,29.77,WNW,297,2.0,0.0,89,0.00,,OVC003,0.00,VWS V14.01,2013-10-19 07:45:00,
2013-10-19 03:46:00,46.0,43.0,29.76,WNW,297,2.0,0.0,89,0.00,,OVC003,0.00,VWS V14.01,2013-10-19 07:46:00,
2013-10-19 03:50:00,45.9,42.8,29.77,WNW,297,2.0,0.0,89,0.00,,OVC003,0.00,VWS V14.01,2013-10-19 07:50:00,
2013-10-19 03:51:00,46.0,43.0,29.76,WNW,297,2.0,0.0,89,0.00,,OVC003,0.00,VWS V14.01,2013-10-19 07:51:00,
2013-10-19 03:55:00,45.9,42.8,29.77,WNW,297,2.0,0.0,89,0.00,,OVC003,0.00,VWS V14.01,2013-10-19 07:55:00,
2013-10-19 03:56:00,46.0,43.0,29.76,WNW,297,2.0,0.0,89,0.00,,OVC003,0.00,VWS V14.01,2013-10-19 07:56:00,
2013-10-19 04:00:00,45.9,42.8,29.76,WNW,297,2.0,0.0,89,0.00,,OVC003,0.00,VWS V14.01,2013-10-19 08:00:00,
2013-10-19 04:01:00,46.0,43.0,29.75,WNW,297,2.0,0.0,89,0.00,,OVC003,0.00,VWS V14.01,2013-10-19 08:01:00,
2013-10-19 04:05:00,45.9,42.8,29.76,WNW,297,3.0,3.0,89,0.00,,OVC003,0.00,VWS V14.01,2013-10-19 08:05:00,
2013-10-19 04:06:00,46.0,43.0,29.75,WNW,297,2.0,0.0,89,0.00,,OVC003,0.00,VWS V14.01,2013-10-19 08:06:00,
2013-10-19 04:10:00,45.9,42.8,29.76,WNW,297,2.0,2.0,89,0.00,,OVC003,0.00,VWS V14.01,2013-10-19 08:10:00,
2013-10-19 04:11:00,46.0,43.0,29.75,WNW,297,2.0,0.0,89,0.00,,OVC003,0.00,VWS V14.01,2013-10-19 08:11:00,
2013-10-19 04:15:00,45.9,42.8,29.76,WNW,297,2.0,0.0,89,0.00,,OVC003,0.00,VWS V14.01,2013-10-19 08:15:00,
2013-10-19 04:16:00,45.9,42.8,29.75,WNW,297,2.0,0.0,89,0.00,,OVC003,0.00,VWS V14.01,2013-10-19 08:16:00,
2013-10-19 04:20:00,45.9,42.8,29.76,WNW,297,2.0,0.0,89,0.00,,OVC003,0.00,VWS V14.01,2013-10-19 08:20:00,
2013-10-19 04:21:00,45.9,43.1,29.75,WNW,297,2.0,0.0,90,0.00,,OVC003,0.00,VWS V14.01,2013-10-19 08:21:00,
2013-10-19 04:25:00,45.9,42.8,29.76,WNW,297,2.0,2.0,89,0.00,,OVC003,0.00,VWS V14.01,2013-10-19 08:25:00,
2013-10-19 04:26:00,45.9,43.1,29.75,WNW,297,2.0,0.0,90,0.00,,OVC003,0.00,VWS V14.01,2013-10-19 08:26:00,
2013-10-19 04:30:00,46.0,43.0,29.76,WNW,297,2.0,3.0,89,0.00,,OVC003,0.00,VWS V14.01,2013-10-19 08:30:00,
2013-10-19 04:31:00,45.8,43.0,29.74,WNW,297,2.0,0.0,90,0.00,,OVC003,0.00,VWS V14.01,2013-10-19 08:31:00,
2013-10-19 04:35:00,46.0,43.0,29.76,WNW,297,2.0,0.0,89,0.00,,OVC003,0.00,VWS V14.01,2013-10-19 08:35:00,
2013-10-19 04:36:00,45.8,43.0,29.74,WNW,297,3.0,3.0,90,0.00,,OVC003,0.00,VWS V14.01,2013-10-19 08:36:00,
2013-10-19 04:40:00,46.0,43.0,29.76,WNW,297,2.0,0.0,89,0.00,,OVC003,0.00,VWS V14.01,2013-10-19 08:40:00,
2013-10-19 04:41:00,45.8,42.8,29.74,WNW,297,2.0,0.0,89,0.00,,OVC003,0.00,VWS V14.01,2013-10-19 08:41:00,
2013-10-19 04:45:00,46.0,43.0,29.76,WNW,297,2.0,0.0,89,0.00,,OVC003,0.00,VWS V14.01,2013-10-19 08:45:00,
2013-10-19 04:46:00,45.8,43.0,29.74,WNW,297,2.0,0.0,90,0.00,,OVC003,0.00,VWS V14.01,2013-10-19 08:46:00,
2013-10-19 04:50:00,46.0,43.0,29.76,WNW,297,2.0,0.0,89,0.00,,OVC003,0.00,VWS V14.01,2013-10-19 08:50:00,
2013-10-19 04:51:00,45.7,42.9,29.74,WNW,297,2.0,0.0,90,0.00,,OVC003,0.00,VWS V14.01,2013-10-19 08:51:00,
2013-10-19 04:55:00,46.0,43.0,29.76,WNW,297,2.0,0.0,89,0.00,,OVC003,0.00,VWS V14.01,2013-10-19 08:55:00,
2013-10-19 04:56:00,45.7,42.9,29.74,WNW,297,2.0,0.0,90,0.00,,OVC003,0.00,VWS V14.01,2013-10-19 08:56:00,
2013-10-19 05:00:00,46.0,43.0,29.75,WNW,297,2.0,0.0,89,0.00,,OVC003,0.00,VWS V14.01,2013-10-19 09:00:00,
2013-10-19 05:01:00,45.7,42.9,29.74,WNW,297,2.0,0.0,90,0.00,,OVC003,0.00,VWS V14.01,2013-10-19 09:01:00,
2013-10-19 05:05:00,46.0,43.0,29.75,WNW,297,2.0,0.0,89,0.00,,OVC003,0.00,VWS V14.01,2013-10-19 09:05:00,
2013-10-19 05:06:00,45.7,42.9,29.74,WNW,297,2.0,0.0,90,0.00,,OVC003,0.00,VWS V14.01,2013-10-19 09:06:00,
2013-10-19 05:10:00,45.9,42.8,29.75,WNW,297,2.0,0.0,89,0.00,,OVC003,0.00,VWS V14.01,2013-10-19 09:10:00,
2013-10-19 05:11:00,45.7,42.9,29.74,WNW,297,2.0,0.0,90,0.00,,OVC003,0.00,VWS V14.01,2013-10-19 09:11:00,
2013-10-19 05:15:00,45.9,42.8,29.75,WNW,297,2.0,0.0,89,0.00,,OVC003,0.00,VWS V14.01,2013-10-19 09:15:00,
2013-10-19 05:16:00,45.7,42.9,29.74,WNW,297,2.0,0.0,90,0.00,,OVC003,0.00,VWS V14.01,2013-10-19 09:16:00,
2013-10-19 05:20:00,45.9,43.1,29.75,WNW,297,2.0,0.0,90,0.00,,OVC003,0.00,VWS V14.01,2013-10-19 09:20:00,
2013-10-19 05:21:00,45.7,42.9,29.74,WNW,297,2.0,0.0,90,0.00,,OVC003,0.00,VWS V14.01,2013-10-19 09:21:00,
2013-10-19 05:25:00,45.9,43.1,29.75,WNW,297,2.0,0.0,90,0.00,,OVC003,0.00,VWS V14.01,2013-10-19 09:25:00,
2013-10-19 05:26:00,45.7,42.9,29.74,WNW,297,2.0,0.0,90,0.00,,OVC003,0.00,VWS V14.01,2013-10-19 09:26:00,
2013-10-19 05:30:00,45.8,43.0,29.74,WNW,297,2.0,0.0,90,0.00,,OVC003,0.00,VWS V14.01,2013-10-19 09:30:00,
2013-10-19 05:31:00,45.7,42.9,29.74,WNW,297,2.0,0.0,90,0.00,,OVC003,0.00,VWS V14.01,2013-10-19 09:31:00,
2013-10-19 05:35:00,45.8,43.0,29.74,WNW,297,2.0,0.0,90,0.00,,OVC003,0.00,VWS V14.01,2013-10-19 09:35:00,
2013-10-19 05:36:00,45.7,42.9,29.74,WNW,297,2.0,0.0,90,0.00,,OVC003,0.00,VWS V14.01,2013-10-19 09:36:00,
2013-10-19 05:40:00,45.8,42.8,29.74,WNW,297,2.0,2.0,89,0.00,,OVC003,0.00,VWS V14.01,2013-10-19 09:40:00,
2013-10-19 05:41:00,45.7,42.9,29.74,WNW,297,2.0,0.0,90,0.00,,OVC003,0.00,VWS V14.01,2013-10-19 09:41:00,
2013-10-19 05:45:00,45.8,43.0,29.74,WNW,297,2.0,0.0,90,0.00,,OVC003,0.00,VWS V14.01,2013-10-19 09:45:00,
2013-10-19 05:46:00,45.7,42.9,29.74,WNW,297,2.0,0.0,90,0.00,,OVC003,0.00,VWS V14.01,2013-10-19 09:46:00,
2013-10-19 05:50:00,45.7,42.9,29.74,WNW,297,2.0,0.0,90,0.00,,OVC003,0.00,VWS V14.01,2013-10-19 09:50:00,
2013-10-19 05:51:00,45.7,42.9,29.74,WNW,297,2.0,0.0,90,0.00,,OVC003,0.00,VWS V14.01,2013-10-19 09:51:00,
2013-10-19 05:56:00,45.7,42.9,29.74,WNW,297,2.0,0.0,90,0.00,,OVC003,0.00,VWS V14.01,2013-10-19 09:56:00,
2013-10-19 06:01:00,45.7,42.9,29.74,WNW,297,2.0,0.0,90,0.00,,OVC003,0.00,VWS V14.01,2013-10-19 10:01:00,
2013-10-19 06:06:00,45.7,42.9,29.74,WNW,297,2.0,0.0,90,0.00,,OVC003,0.00,VWS V14.01,2013-10-19 10:06:00,
2013-10-19 06:11:00,45.7,42.9,29.74,WNW,297,2.0,0.0,90,0.00,,OVC003,0.00,VWS V14.01,2013-10-19 10:11:00,
2013-10-19 06:16:00,45.7,42.9,29.74,WNW,297,2.0,0.0,90,0.00,,OVC003,0.00,VWS V14.01,2013-10-19 10:16:00,
2013-10-19 06:21:00,45.7,42.9,29.74,WNW,297,2.0,0.0,90,0.00,,OVC003,0.00,VWS V14.01,2013-10-19 10:21:00,
2013-10-19 06:26:00,45.7,42.9,29.74,WNW,297,2.0,0.0,90,0.00,,OVC003,0.00,VWS V14.01,2013-10-19 10:26:00,
2013-10-19 06:31:00,45.7,42.9,29.74,WNW,297,2.0,0.0,90,0.00,,OVC003,0.00,VWS V14.01,2013-10-19 10:31:00,
2013-10-19 06:36:00,45.7,42.9,29.74,WNW,297,2.0,0.0,90,0.00,,OVC003,0.00,VWS V14.01,2013-10-19 10:36:00,
2013-10-19 06:41:00,45.7,42.9,29.74,WNW,297,2.0,0.0,90,0.00,,OVC003,0.00,VWS V14.01,2013-10-19 10:41:00,
2013-10-19 06:46:00,45.7,42.9,29.74,WNW,297,2.0,0.0,90,0.00,,OVC003,0.00,VWS V14.01,2013-10-19 10:46:00,
2013-10-19 06:51:00,45.7,42.9,29.74,WNW,297,2.0,0.0,90,0.00,,OVC003,0.00,VWS V14.01,2013-10-19 10:51:00,
2013-10-19 06:56:00,45.7,42.9,29.74,WNW,297,2.0,0.0,90,0.00,,OVC003,0.00,VWS V14.01,2013-10-19 10:56:00,
2013-10-19 07:01:00,45.7,42.9,29.74,WNW,297,2.0,0.0,90,0.00,,OVC003,0.00,VWS V14.01,2013-10-19 11:01:00,
2013-10-19 07:06:00,45.7,42.9,29.74,WNW,297,2.0,0.0,90,0.00,,OVC003,0.00,VWS V14.01,2013-10-19 11:06:00,
2013-10-19 07:11:00,45.7,42.9,29.74,WNW,297,2.0,0.0,90,0.00,,OVC003,0.00,VWS V14.01,2013-10-19 11:11:00,
2013-10-19 07:16:00,45.7,42.9,29.74,WNW,297,2.0,0.0,90,0.00,,OVC003,0.00,VWS V14.01,2013-10-19 11:16:00,
2013-10-19 07:21:00,45.7,42.9,29.74,WNW,297,2.0,0.0,90,0.00,,OVC003,0.00,VWS V14.01,2013-10-19 11:21:00,
2013-10-19 07:26:00,45.7,42.9,29.74,WNW,297,2.0,0.0,90,0.00,,OVC003,0.00,VWS V14.01,2013-10-19 11:26:00,
2013-10-19 07:31:00,45.7,42.9,29.74,WNW,297,2.0,0.0,90,0.00,,OVC003,0.00,VWS V14.01,2013-10-19 11:31:00,
2013-10-19 07:36:00,45.7,42.9,29.74,WNW,297,2.0,0.0,90,0.00,,OVC003,0.00,VWS V14.01,2013-10-19 11:36:00,
2013-10-19 07:41:00,45.7,42.9,29.74,WNW,297,2.0,0.0,90,0.00,,OVC003,0.00,VWS V14.01,2013-10-19 11:41:00,
2013-10-19 07:46:00,45.7,42.9,29.74,WNW,297,2.0,0.0,90,0.00,,OVC003,0.00,VWS V14.01,2013-10-19 11:46:00,
2013-10-19 07:51:00,45.7,42.9,29.74,WNW,297,2.0,0.0,90,0.00,,OVC003,0.00,VWS V14.01,2013-10-19 11:51:00,
2013-10-19 07:56:00,45.7,42.9,29.74,WNW,297,2.0,0.0,90,0.00,,OVC003,0.00,VWS V14.01,2013-10-19 11:56:00,
2013-10-19 08:02:00,45.7,42.9,29.74,WNW,297,2.0,0.0,90,0.00,,OVC003,0.00,VWS V14.01,2013-10-19 12:02:00,
2013-10-19 08:07:00,45.7,42.9,29.74,WNW,297,2.0,0.0,90,0.00,,OVC003,0.00,VWS V14.01,2013-10-19 12:07:00,
2013-10-19 08:12:00,45.7,42.9,29.74,WNW,297,2.0,0.0,90,0.00,,OVC003,0.00,VWS V14.01,2013-10-19 12:12:00,
2013-10-19 08:17:00,45.7,42.9,29.74,WNW,297,2.0,0.0,90,0.00,,OVC003,0.00,VWS V14.01,2013-10-19 12:17:00,
2013-10-19 08:22:00,45.7,42.9,29.74,WNW,297,2.0,0.0,90,0.00,,OVC003,0.00,VWS V14.01,2013-10-19 12:22:00,
2013-10-19 08:27:00,45.7,42.9,29.74,WNW,297,2.0,0.0,90,0.00,,OVC003,0.00,VWS V14.01,2013-10-19 12:27:00,
2013-10-19 08:32:00,45.7,42.9,29.74,WNW,297,2.0,0.0,90,0.00,,OVC003,0.00,VWS V14.01,2013-10-19 12:32:00,
2013-10-19 08:37:00,45.7,42.9,29.74,WNW,297,2.0,0.0,90,0.00,,OVC003,0.00,VWS V14.01,2013-10-19 12:37:00,
2013-10-19 08:42:00,45.7,42.9,29.74,WNW,297,2.0,0.0,90,0.00,,OVC003,0.00,VWS V14.01,2013-10-19 12:42:00,
2013-10-19 08:47:00,45.7,42.9,29.74,WNW,297,2.0,0.0,90,0.00,,OVC003,0.00,VWS V14.01,2013-10-19 12:47:00,
2013-10-19 08:52:00,45.7,42.9,29.74,WNW,297,2.0,0.0,90,0.00,,OVC003,0.00,VWS V14.01,2013-10-19 12:52:00,
2013-10-19 08:57:00,45.7,42.9,29.74,WNW,297,2.0,0.0,90,0.00,,OVC003,0.00,VWS V14.01,2013-10-19 12:57:00,
2013-10-19 09:02:00,45.7,42.9,29.74,WNW,297,2.0,0.0,90,0.00,,OVC003,0.00,VWS V14.01,2013-10-19 13:02:00,
2013-10-19 09:07:00,45.7,42.9,29.74,WNW,297,2.0,0.0,90,0.00,,OVC003,0.00,VWS V14.01,2013-10-19 13:07:00,
2013-10-19 09:12:00,45.7,42.9,29.74,WNW,297,2.0,0.0,90,0.00,,OVC003,0.00,VWS V14.01,2013-10-19 13:12:00,
2013-10-19 09:17:00,45.7,42.9,29.74,WNW,297,2.0,0.0,90,0.00,,OVC003,0.00,VWS V14.01,2013-10-19 13:17:00,
2013-10-19 09:22:00,45.7,42.9,29.74,WNW,297,2.0,0.0,90,0.00,,OVC003,0.00,VWS V14.01,2013-10-19 13:22:00,
2013-10-19 09:27:00,45.7,42.9,29.74,WNW,297,2.0,0.0,90,0.00,,OVC003,0.00,VWS V14.01,2013-10-19 13:27:00,
2013-10-19 09:32:00,45.7,42.9,29.74,WNW,297,2.0,0.0,90,0.00,,OVC003,0.00,VWS V14.01,2013-10-19 13:32:00,
2013-10-19 09:37:00,45.7,42.9,29.74,WNW,297,2.0,0.0,90,0.00,,OVC003,0.00,VWS V14.01,2013-10-19 13:37:00,
2013-10-19 09:42:00,45.7,42.9,29.74,WNW,297,2.0,0.0,90,0.00,,OVC003,0.00,VWS V14.01,2013-10-19 13:42:00,
2013-10-19 09:47:00,45.7,42.9,29.74,WNW,297,2.0,0.0,90,0.00,,OVC003,0.00,VWS V14.01,2013-10-19 13:47:00,
2013-10-19 09:52:00,45.7,42.9,29.74,WNW,297,2.0,0.0,90,0.00,,OVC003,0.00,VWS V14.01,2013-10-19 13:52:00,
2013-10-19 09:57:00,45.7,42.9,29.74,WNW,297,2.0,0.0,90,0.00,,OVC003,0.00,VWS V14.01,2013-10-19 13:57:00,
2013-10-19 10:02:00,45.7,42.9,29.74,WNW,297,2.0,0.0,90,0.00,,OVC003,0.00,VWS V14.01,2013-10-19 14:02:00,
2013-10-19 10:07:00,45.7,42.9,29.74,WNW,297,2.0,0.0,90,0.00,,OVC003,0.00,VWS V14.01,2013-10-19 14:07:00,
2013-10-19 10:12:00,45.7,42.9,29.74,WNW,297,2.0,0.0,90,0.00,,OVC003,0.00,VWS V14.01,2013-10-19 14:12:00,
2013-10-19 10:17:00,45.7,42.9,29.74,WNW,297,2.0,0.0,90,0.00,,OVC003,0.00,VWS V14.01,2013-10-19 14:17:00,
2013-10-19 10:22:00,45.7,42.9,29.74,WNW,297,2.0,0.0,90,0.00,,OVC003,0.00,VWS V14.01,2013-10-19 14:22:00,
2013-10-19 10:27:00,45.7,42.9,29.74,WNW,297,2.0,0.0,90,0.00,,OVC003,0.00,VWS V14.01,2013-10-19 14:27:00,
2013-10-19 10:32:00,45.7,42.9,29.74,WNW,297,2.0,0.0,90,0.00,,OVC003,0.00,VWS V14.01,2013-10-19 14:32:00,
2013-10-19 10:37:00,45.7,42.9,29.74,WNW,297,2.0,0.0,90,0.00,,OVC003,0.00,VWS V14.01,2013-10-19 14:37:00,
2013-10-19 10:42:00,45.7,42.9,29.74,WNW,297,2.0,0.0,90,0.00,,OVC003,0.00,VWS V14.01,2013-10-19 14:42:00,
2013-10-19 10:47:00,45.7,42.9,29.74,WNW,297,2.0,0.0,90,0.00,,OVC003,0.00,VWS V14.01,2013-10-19 14:47:00,
2013-10-19 10:52:00,45.7,42.9,29.74,WNW,297,2.0,0.0,90,0.00,,OVC003,0.00,VWS V14.01,2013-10-19 14:52:00,
2013-10-19 10:57:00,45.7,42.9,29.74,WNW,297,2.0,0.0,90,0.00,,OVC003,0.00,VWS V14.01,2013-10-19 14:57:00,
2013-10-19 11:02:00,45.7,42.9,29.74,WNW,297,2.0,0.0,90,0.00,,OVC003,0.00,VWS V14.01,2013-10-19 15:02:00,
2013-10-19 11:07:00,45.7,42.9,29.74,WNW,297,2.0,0.0,90,0.00,,OVC003,0.00,VWS V14.01,2013-10-19 15:07:00,
2013-10-19 11:12:00,45.7,42.9,29.74,WNW,297,2.0,0.0,90,0.00,,OVC003,0.00,VWS V14.01,2013-10-19 15:12:00,
2013-10-19 11:17:00,45.7,42.9,29.74,WNW,297,2.0,0.0,90,0.00,,OVC003,0.00,VWS V14.01,2013-10-19 15:17:00,
2013-10-19 11:22:00,45.7,42.9,29.74,WNW,297,2.0,0.0,90,0.00,,OVC003,0.00,VWS V14.01,2013-10-19 15:22:00,
2013-10-19 11:27:00,45.7,42.9,29.74,WNW,297,2.0,0.0,90,0.00,,OVC003,0.00,VWS V14.01,2013-10-19 15:27:00,
2013-10-19 11:32:00,45.7,42.9,29.74,WNW,297,2.0,0.0,90,0.00,,OVC003,0.00,VWS V14.01,2013-10-19 15:32:00,
2013-10-19 11:37:00,45.7,42.9,29.74,WNW,297,2.0,0.0,90,0.00,,OVC003,0.00,VWS V14.01,2013-10-19 15:37:00,
2013-10-19 11:42:00,45.7,42.9,29.74,WNW,297,2.0,0.0,90,0.00,,OVC003,0.00,VWS V14.01,2013-10-19 15:42:00,
2013-10-19 11:47:00,45.7,42.9,29.74,WNW,297,2.0,0.0,90,0.00,,OVC003,0.00,VWS V14.01,2013-10-19 15:47:00,
2013-10-19 11:52:00,45.7,42.9,29.74,WNW,297,2.0,0.0,90,0.00,,OVC003,0.00,VWS V14.01,2013-10-19 15:52:00,
2013-10-19 11:57:00,45.7,42.9,29.74,WNW,297,2.0,0.0,90,0.00,,OVC003,0.00,VWS V14.01,2013-10-19 15:57:00,
2013-10-19 12:02:00,45.7,42.9,29.74,WNW,297,2.0,0.0,90,0.00,,OVC003,0.00,VWS V14.01,2013-10-19 16:02:00,
2013-10-19 12:07:00,45.7,42.9,29.74,WNW,297,2.0,0.0,90,0.00,,OVC003,0.00,VWS V14.01,2013-10-19 16:07:00,
2013-10-19 12:12:00,45.7,42.9,29.74,WNW,297,2.0,0.0,90,0.00,,OVC003,0.00,VWS V14.01,2013-10-19 16:12:00,
2013-10-19 12:18:00,45.7,42.9,29.74,WNW,297,2.0,0.0,90,0.00,,OVC003,0.00,VWS V14.01,2013-10-19 16:18:00,
2013-10-19 12:23:00,45.7,42.9,29.74,WNW,297,2.0,0.0,90,0.00,,OVC003,0.00,VWS V14.01,2013-10-19 16:23:00,
2013-10-19 12:28:00,45.7,42.9,29.74,WNW,297,2.0,0.0,90,0.00,,OVC003,0.00,VWS V14.01,2013-10-19 16:28:00,
2013-10-19 12:33:00,45.7,42.9,29.74,WNW,297,2.0,0.0,90,0.00,,OVC003,0.00,VWS V14.01,2013-10-19 16:33:00,
2013-10-19 12:38:00,45.7,42.9,29.74,WNW,297,2.0,0.0,90,0.00,,OVC003,0.00,VWS V14.01,2013-10-19 16:38:00,
2013-10-19 12:43:00,45.7,42.9,29.74,WNW,297,2.0,0.0,90,0.00,,OVC003,0.00,VWS V14.01,2013-10-19 16:43:00,
2013-10-19 12:48:00,45.7,42.9,29.74,WNW,297,2.0,0.0,90,0.00,,OVC003,0.00,VWS V14.01,2013-10-19 16:48:00,
2013-10-19 12:53:00,45.7,42.9,29.74,WNW,297,2.0,0.0,90,0.00,,OVC003,0.00,VWS V14.01,2013-10-19 16:53:00,
2013-10-19 12:58:00,45.7,42.9,29.74,WNW,297,2.0,0.0,90,0.00,,OVC003,0.00,VWS V14.01,2013-10-19 16:58:00,
2013-10-19 13:03:00,45.7,42.9,29.74,WNW,297,2.0,0.0,90,0.00,,OVC003,0.00,VWS V14.01,2013-10-19 17:03:00,
2013-10-19 13:08:00,45.7,42.9,29.74,WNW,297,2.0,0.0,90,0.00,,OVC003,0.00,VWS V14.01,2013-10-19 17:08:00,
2013-10-19 13:13:00,45.7,42.9,29.74,WNW,297,2.0,0.0,90,0.00,,OVC003,0.00,VWS V14.01,2013-10-19 17:13:00,
2013-10-19 13:18:00,45.7,42.9,29.74,WNW,297,2.0,0.0,90,0.00,,OVC003,0.00,VWS V14.01,2013-10-19 17:18:00,
2013-10-19 13:23:00,45.7,42.9,29.74,WNW,297,2.0,0.0,90,0.00,,OVC003,0.00,VWS V14.01,2013-10-19 17:23:00,
2013-10-19 13:28:00,45.7,42.9,29.74,WNW,297,2.0,0.0,90,0.00,,OVC003,0.00,VWS V14.01,2013-10-19 17:28:00,
2013-10-19 13:33:00,45.7,42.9,29.74,WNW,297,2.0,0.0,90,0.00,,OVC003,0.00,VWS V14.01,2013-10-19 17:33:00,
2013-10-19 13:38:00,45.7,42.9,29.74,WNW,297,2.0,0.0,90,0.00,,OVC003,0.00,VWS V14.01,2013-10-19 17:38:00,
2013-10-19 13:43:00,45.7,42.9,29.74,WNW,297,2.0,0.0,90,0.00,,OVC003,0.00,VWS V14.01,2013-10-19 17:43:00,
2013-10-19 13:48:00,45.7,42.9,29.74,WNW,297,2.0,0.0,90,0.00,,OVC003,0.00,VWS V14.01,2013-10-19 17:48:00,
2013-10-19 13:53:00,45.7,42.9,29.74,WNW,297,2.0,0.0,90,0.00,,OVC003,0.00,VWS V14.01,2013-10-19 17:53:00,
2013-10-19 13:58:00,45.7,42.9,29.74,WNW,297,2.0,0.0,90,0.00,,OVC003,0.00,VWS V14.01,2013-10-19 17:58:00,
2013-10-19 14:03:00,45.7,42.9,29.74,WNW,297,2.0,0.0,90,0.00,,OVC003,0.00,VWS V14.01,2013-10-19 18:03:00,
2013-10-19 14:08:00,45.7,42.9,29.74,WNW,297,2.0,0.0,90,0.00,,OVC003,0.00,VWS V14.01,2013-10-19 18:08:00,
2013-10-19 14:13:00,45.7,42.9,29.74,WNW,297,2.0,0.0,90,0.00,,OVC003,0.00,VWS V14.01,2013-10-19 18:13:00,
2013-10-19 14:18:00,45.7,42.9,29.74,WNW,297,2.0,0.0,90,0.00,,OVC003,0.00,VWS V14.01,2013-10-19 18:18:00,
2013-10-19 14:23:00,45.7,42.9,29.74,WNW,297,2.0,0.0,90,0.00,,OVC003,0.00,VWS V14.01,2013-10-19 18:23:00,
2013-10-19 14:28:00,45.7,42.9,29.74,WNW,297,2.0,0.0,90,0.00,,OVC003,0.00,VWS V14.01,2013-10-19 18:28:00,
2013-10-19 14:33:00,45.7,42.9,29.74,WNW,297,2.0,0.0,90,0.00,,OVC003,0.00,VWS V14.01,2013-10-19 18:33:00,
2013-10-19 14:38:00,45.7,42.9,29.74,WNW,297,2.0,0.0,90,0.00,,OVC003,0.00,VWS V14.01,2013-10-19 18:38:00,
2013-10-19 14:43:00,45.7,42.9,29.74,WNW,297,2.0,0.0,90,0.00,,OVC003,0.00,VWS V14.01,2013-10-19 18:43:00,
2013-10-19 14:48:00,45.7,42.9,29.74,WNW,297,2.0,0.0,90,0.00,,OVC003,0.00,VWS V14.01,2013-10-19 18:48:00,
2013-10-19 14:53:00,45.7,42.9,29.74,WNW,297,2.0,0.0,90,0.00,,OVC003,0.00,VWS V14.01,2013-10-19 18:53:00,
2013-10-19 14:58:00,45.7,42.9,29.74,WNW,297,2.0,0.0,90,0.00,,OVC003,0.00,VWS V14.01,2013-10-19 18:58:00,
2013-10-19 15:03:00,45.7,42.9,29.74,WNW,297,2.0,0.0,90,0.00,,OVC003,0.00,VWS V14.01,2013-10-19 19:03:00,
2013-10-19 15:08:00,45.7,42.9,29.74,WNW,297,2.0,0.0,90,0.00,,OVC003,0.00,VWS V14.01,2013-10-19 19:08:00,
2013-10-19 15:13:00,45.7,42.9,29.74,WNW,297,2.0,0.0,90,0.00,,OVC003,0.00,VWS V14.01,2013-10-19 19:13:00,
2013-10-19 15:18:00,45.7,42.9,29.74,WNW,297,2.0,0.0,90,0.00,,OVC003,0.00,VWS V14.01,2013-10-19 19:18:00,
2013-10-19 15:23:00,45.7,42.9,29.74,WNW,297,2.0,0.0,90,0.00,,OVC003,0.00,VWS V14.01,2013-10-19 19:23:00,
2013-10-19 15:28:00,45.7,42.9,29.74,WNW,297,2.0,0.0,90,0.00,,OVC003,0.00,VWS V14.01,2013-10-19 19:28:00,
2013-10-19 15:33:00,45.7,42.9,29.74,WNW,297,2.0,0.0,90,0.00,,OVC003,0.00,VWS V14.01,2013-10-19 19:33:00,
2013-10-19 15:38:00,45.7,42.9,29.74,WNW,297,2.0,0.0,90,0.00,,OVC003,0.00,VWS V14.01,2013-10-19 19:38:00,
2013-10-19 15:43:00,45.7,42.9,29.74,WNW,297,2.0,0.0,90,0.00,,OVC003,0.00,VWS V14.01,2013-10-19 19:43:00,
2013-10-19 15:48:00,45.7,42.9,29.74,WNW,297,2.0,0.0,90,0.00,,OVC003,0.00,VWS V14.01,2013-10-19 19:48:00,
2013-10-19 15:53:00,45.7,42.9,29.74,WNW,297,2.0,0.0,90,0.00,,OVC003,0.00,VWS V14.01,2013-10-19 19:53:00,
2013-10-19 15:58:00,45.7,42.9,29.74,WNW,297,2.0,0.0,90,0.00,,OVC003,0.00,VWS V14.01,2013-10-19 19:58:00,
2013-10-19 16:03:00,45.7,42.9,29.74,WNW,297,2.0,0.0,90,0.00,,OVC003,0.00,VWS V14.01,2013-10-19 20:03:00,
2013-10-19 16:08:00,45.7,42.9,29.74,WNW,297,2.0,0.0,90,0.00,,OVC003,0.00,VWS V14.01,2013-10-19 20:08:00,
2013-10-19 16:13:00,45.7,42.9,29.74,WNW,297,2.0,0.0,90,0.00,,OVC003,0.00,VWS V14.01,2013-10-19 20:13:00,
2013-10-19 16:18:00,45.7,42.9,29.74,WNW,297,2.0,0.0,90,0.00,,OVC003,0.00,VWS V14.01,2013-10-19 20:18:00,
2013-10-19 16:24:00,45.7,42.9,29.74,WNW,297,2.0,0.0,90,0.00,,OVC003,0.00,VWS V14.01,2013-10-19 20:24:00,
2013-10-19 16:29:00,45.7,42.9,29.74,WNW,297,2.0,0.0,90,0.00,,OVC003,0.00,VWS V14.01,2013-10-19 20:29:00,
2013-10-19 16:34:00,45.7,42.9,29.74,WNW,297,2.0,0.0,90,0.00,,OVC003,0.00,VWS V14.01,2013-10-19 20:34:00,
2013-10-19 16:39:00,45.7,42.9,29.74,WNW,297,2.0,0.0,90,0.00,,OVC003,0.00,VWS V14.01,2013-10-19 20:39:00,
2013-10-19 16:44:00,45.7,42.9,29.74,WNW,297,2.0,0.0,90,0.00,,OVC003,0.00,VWS V14.01,2013-10-19 20:44:00,
2013-10-19 16:49:00,45.7,42.9,29.74,WNW,297,2.0,0.0,90,0.00,,OVC003,0.00,VWS V14.01,2013-10-19 20:49:00,
2013-10-19 16:54:00,45.7,42.9,29.74,WNW,297,2.0,0.0,90,0.00,,OVC003,0.00,VWS V14.01,2013-10-19 20:54:00,
2013-10-19 16:59:00,45.7,42.9,29.74,WNW,297,2.0,0.0,90,0.00,,OVC003,0.00,VWS V14.01,2013-10-19 20:59:00,
2013-10-19 17:04:00,45.7,42.9,29.74,WNW,297,2.0,0.0,90,0.00,,OVC003,0.00,VWS V14.01,2013-10-19 21:04:00,
2013-10-19 17:09:00,45.7,42.9,29.74,WNW,297,2.0,0.0,90,0.00,,OVC003,0.00,VWS V14.01,2013-10-19 21:09:00,
2013-10-19 17:14:00,45.7,42.9,29.74,WNW,297,2.0,0.0,90,0.00,,OVC003,0.00,VWS V14.01,2013-10-19 21:14:00,
2013-10-19 17:19:00,45.7,42.9,29.74,WNW,297,2.0,0.0,90,0.00,,OVC003,0.00,VWS V14.01,2013-10-19 21:19:00,
2013-10-19 17:24:00,45.7,42.9,29.74,WNW,297,2.0,0.0,90,0.00,,OVC003,0.00,VWS V14.01,2013-10-19 21:24:00,
2013-10-19 17:29:00,45.7,42.9,29.74,WNW,297,2.0,0.0,90,0.00,,OVC003,0.00,VWS V14.01,2013-10-19 21:29:00,
2013-10-19 17:34:00,45.7,42.9,29.74,WNW,297,2.0,0.0,90,0.00,,OVC003,0.00,VWS V14.01,2013-10-19 21:34:00,
2013-10-19 17:39:00,45.7,42.9,29.74,WNW,297,2.0,0.0,90,0.00,,OVC003,0.00,VWS V14.01,2013-10-19 21:39:00,
2013-10-19 17:44:00,45.7,42.9,29.74,WNW,297,2.0,0.0,90,0.00,,OVC003,0.00,VWS V14.01,2013-10-19 21:44:00,
2013-10-19 17:49:00,45.7,42.9,29.74,WNW,297,2.0,0.0,90,0.00,,OVC003,0.00,VWS V14.01,2013-10-19 21:49:00,
2013-10-19 17:54:00,45.7,42.9,29.74,WNW,297,2.0,0.0,90,0.00,,OVC003,0.00,VWS V14.01,2013-10-19 21:54:00,
2013-10-19 17:59:00,45.7,42.9,29.74,WNW,297,2.0,0.0,90,0.00,,OVC003,0.00,VWS V14.01,2013-10-19 21:59:00,
2013-10-19 18:04:00,45.7,42.9,29.74,WNW,297,2.0,0.0,90,0.00,,OVC003,0.00,VWS V14.01,2013-10-19 22:04:00,
2013-10-19 18:09:00,45.7,42.9,29.74,WNW,297,2.0,0.0,90,0.00,,OVC003,0.00,VWS V14.01,2013-10-19 22:09:00,
2013-10-19 18:14:00,45.7,42.9,29.74,WNW,297,2.0,0.0,90,0.00,,OVC003,0.00,VWS V14.01,2013-10-19 22:14:00,
2013-10-19 18:19:00,45.7,42.9,29.74,WNW,297,2.0,0.0,90,0.00,,OVC003,0.00,VWS V14.01,2013-10-19 22:19:00,
2013-10-19 18:24:00,45.7,42.9,29.74,WNW,297,2.0,0.0,90,0.00,,OVC003,0.00,VWS V14.01,2013-10-19 22:24:00,
2013-10-19 18:29:00,45.7,42.9,29.74,WNW,297,2.0,0.0,90,0.00,,OVC003,0.00,VWS V14.01,2013-10-19 22:29:00,
2013-10-19 18:34:00,45.7,42.9,29.74,WNW,297,2.0,0.0,90,0.00,,OVC003,0.00,VWS V14.01,2013-10-19 22:34:00,
2013-10-19 18:39:00,45.7,42.9,29.74,WNW,297,2.0,0.0,90,0.00,,OVC003,0.00,VWS V14.01,2013-10-19 22:39:00,
2013-10-19 18:44:00,45.7,42.9,29.74,WNW,297,2.0,0.0,90,0.00,,OVC003,0.00,VWS V14.01,2013-10-19 22:44:00,
2013-10-19 18:49:00,45.7,42.9,29.74,WNW,297,2.0,0.0,90,0.00,,OVC003,0.00,VWS V14.01,2013-10-19 22:49:00,
2013-10-19 18:54:00,45.7,42.9,29.74,WNW,297,2.0,0.0,90,0.00,,OVC003,0.00,VWS V14.01,2013-10-19 22:54:00,
2013-10-19 18:59:00,45.7,42.9,29.74,WNW,297,2.0,0.0,90,0.00,,OVC003,0.00,VWS V14.01,2013-10-19 22:59:00,
2013-10-19 19:04:00,45.7,42.9,29.74,WNW,297,2.0,0.0,90,0.00,,OVC003,0.00,VWS V14.01,2013-10-19 23:04:00,
2013-10-19 19:09:00,45.7,42.9,29.74,WNW,297,2.0,0.0,90,0.00,,OVC003,0.00,VWS V14.01,2013-10-19 23:09:00,
2013-10-19 19:14:00,45.7,42.9,29.74,WNW,297,2.0,0.0,90,0.00,,OVC003,0.00,VWS V14.01,2013-10-19 23:14:00,
2013-10-19 19:19:00,45.7,42.9,29.74,WNW,297,2.0,0.0,90,0.00,,OVC003,0.00,VWS V14.01,2013-10-19 23:19:00,
2013-10-19 19:24:00,45.7,42.9,29.74,WNW,297,2.0,0.0,90,0.00,,OVC003,0.00,VWS V14.01,2013-10-19 23:24:00,
2013-10-19 19:29:00,45.7,42.9,29.74,WNW,297,2.0,0.0,90,0.00,,OVC003,0.00,VWS V14.01,2013-10-19 23:29:00,
2013-10-19 19:34:00,45.7,42.9,29.74,WNW,297,2.0,0.0,90,0.00,,OVC003,0.00,VWS V14.01,2013-10-19 23:34:00,
2013-10-19 19:39:00,45.7,42.9,29.74,WNW,297,2.0,0.0,90,0.00,,OVC003,0.00,VWS V14.01,2013-10-19 23:39:00,
2013-10-19 19:44:00,45.7,42.9,29.74,WNW,297,2.0,0.0,90,0.00,,OVC003,0.00,VWS V14.01,2013-10-19 23:44:00,
2013-10-19 19:49:00,45.7,42.9,29.74,WNW,297,2.0,0.0,90,0.00,,OVC003,0.00,VWS V14.01,2013-10-19 23:49:00,
2013-10-19 19:54:00,45.7,42.9,29.74,WNW,297,2.0,0.0,90,0.00,,OVC003,0.00,VWS V14.01,2013-10-19 23:54:00,
2013-10-19 19:59:00,45.7,42.9,29.74,WNW,297,2.0,0.0,90,0.00,,OVC003,0.00,VWS V14.01,2013-10-19 23:59:00,
2013-10-19 20:04:00,45.7,42.9,29.74,WNW,297,2.0,0.0,90,0.00,,OVC003,0.00,VWS V14.01,2013-10-20 00:04:00,
2013-10-19 20:09:00,45.7,42.9,29.74,WNW,297,2.0,0.0,90,0.00,,OVC003,0.00,VWS V14.01,2013-10-20 00:09:00,
2013-10-19 20:15:00,45.7,42.9,29.74,WNW,297,2.0,0.0,90,0.00,,OVC003,0.00,VWS V14.01,2013-10-20 00:15:00,
2013-10-19 20:20:00,45.7,42.9,29.74,WNW,297,2.0,0.0,90,0.00,,OVC003,0.00,VWS V14.01,2013-10-20 00:20:00,
2013-10-19 20:25:00,45.7,42.9,29.74,WNW,297,2.0,0.0,90,0.00,,OVC003,0.00,VWS V14.01,2013-10-20 00:25:00,
2013-10-19 20:30:00,45.7,42.9,29.74,WNW,297,2.0,0.0,90,0.00,,OVC003,0.00,VWS V14.01,2013-10-20 00:30:00,
2013-10-19 20:35:00,45.7,42.9,29.74,WNW,297,2.0,0.0,90,0.00,,OVC003,0.00,VWS V14.01,2013-10-20 00:35:00,
2013-10-19 20:40:00,45.7,42.9,29.74,WNW,297,2.0,0.0,90,0.00,,OVC003,0.00,VWS V14.01,2013-10-20 00:40:00,
2013-10-19 20:45:00,45.7,42.9,29.74,WNW,297,2.0,0.0,90,0.00,,OVC003,0.00,VWS V14.01,2013-10-20 00:45:00,
2013-10-19 20:50:00,45.7,42.9,29.74,WNW,297,2.0,0.0,90,0.00,,OVC003,0.00,VWS V14.01,2013-10-20 00:50:00,
2013-10-19 20:55:00,45.7,42.9,29.74,WNW,297,2.0,0.0,90,0.00,,OVC003,0.00,VWS V14.01,2013-10-20 00:55:00,
2013-10-19 21:00:00,45.7,42.9,29.74,WNW,297,2.0,0.0,90,0.00,,OVC003,0.00,VWS V14.01,2013-10-20 01:00:00,
2013-10-19 21:05:00,45.7,42.9,29.74,WNW,297,2.0,0.0,90,0.00,,OVC003,0.00,VWS V14.01,2013-10-20 01:05:00,
2013-10-19 21:10:00,45.7,42.9,29.74,WNW,297,2.0,0.0,90,0.00,,OVC003,0.00,VWS V14.01,2013-10-20 01:10:00,
2013-10-19 21:15:00,45.7,42.9,29.74,WNW,297,2.0,0.0,90,0.00,,OVC003,0.00,VWS V14.01,2013-10-20 01:15:00,
2013-10-19 21:20:00,45.7,42.9,29.74,WNW,297,2.0,0.0,90,0.00,,OVC003,0.00,VWS V14.01,2013-10-20 01:20:00,
2013-10-19 21:25:00,45.7,42.9,29.74,WNW,297,2.0,0.0,90,0.00,,OVC003,0.00,VWS V14.01,2013-10-20 01:25:00,
2013-10-19 21:30:00,45.7,42.9,29.74,WNW,297,2.0,0.0,90,0.00,,OVC003,0.00,VWS V14.01,2013-10-20 01:30:00,
2013-10-19 21:35:00,45.7,42.9,29.74,WNW,297,2.0,0.0,90,0.00,,OVC003,0.00,VWS V14.01,2013-10-20 01:35:00,
2013-10-19 21:40:00,45.7,42.9,29.74,WNW,297,2.0,0.0,90,0.00,,OVC003,0.00,VWS V14.01,2013-10-20 01:40:00,
2013-10-19 21:45:00,45.7,42.9,29.74,WNW,297,2.0,0.0,90,0.00,,OVC003,0.00,VWS V14.01,2013-10-20 01:45:00,
2013-10-19 21:50:00,45.7,42.9,29.74,WNW,297,2.0,0.0,90,0.00,,OVC003,0.00,VWS V14.01,2013-10-20 01:50:00,
2013-10-19 21:55:00,45.7,42.9,29.74,WNW,297,2.0,0.0,90,0.00,,OVC003,0.00,VWS V14.01,2013-10-20 01:55:00,
2013-10-19 22:00:00,45.7,42.9,29.74,WNW,297,2.0,0.0,90,0.00,,OVC003,0.00,VWS V14.01,2013-10-20 02:00:00,
2013-10-19 22:05:00,45.7,42.9,29.74,WNW,297,2.0,0.0,90,0.00,,OVC003,0.00,VWS V14.01,2013-10-20 02:05:00,
2013-10-19 22:10:00,45.7,42.9,29.74,WNW,297,2.0,0.0,90,0.00,,OVC003,0.00,VWS V14.01,2013-10-20 02:10:00,
2013-10-19 22:15:00,45.7,42.9,29.74,WNW,297,2.0,0.0,90,0.00,,OVC003,0.00,VWS V14.01,2013-10-20 02:15:00,
2013-10-19 22:20:00,45.7,42.9,29.74,WNW,297,2.0,0.0,90,0.00,,OVC003,0.00,VWS V14.01,2013-10-20 02:20:00,
2013-10-19 22:25:00,45.7,42.9,29.74,WNW,297,2.0,0.0,90,0.00,,OVC003,0.00,VWS V14.01,2013-10-20 02:25:00,
2013-10-19 22:30:00,45.7,42.9,29.74,WNW,297,2.0,0.0,90,0.00,,OVC003,0.00,VWS V14.01,2013-10-20 02:30:00,
2013-10-19 22:35:00,45.7,42.9,29.74,WNW,297,2.0,0.0,90,0.00,,OVC003,0.00,VWS V14.01,2013-10-20 02:35:00,
2013-10-19 22:40:00,45.7,42.9,29.74,WNW,297,2.0,0.0,90,0.00,,OVC003,0.00,VWS V14.01,2013-10-20 02:40:00,
2013-10-19 22:45:00,45.7,42.9,29.74,WNW,297,2.0,0.0,90,0.00,,OVC003,0.00,VWS V14.01,2013-10-20 02:45:00,
2013-10-19 22:50:00,45.7,42.9,29.74,WNW,297,2.0,0.0,90,0.00,,OVC003,0.00,VWS V14.01,2013-10-20 02:50:00,
2013-10-19 22:55:00,45.7,42.9,29.74,WNW,297,2.0,0.0,90,0.00,,OVC003,0.00,VWS V14.01,2013-10-20 02:55:00,
2013-10-19 23:00:00,45.7,42.9,29.74,WNW,297,2.0,0.0,90,0.00,,OVC003,0.00,VWS V14.01,2013-10-20 03:00:00,
2013-10-19 23:05:00,45.7,42.9,29.74,WNW,297,2.0,0.0,90,0.00,,OVC003,0.00,VWS V14.01,2013-10-20 03:05:00,
2013-10-19 23:10:00,45.7,42.9,29.74,WNW,297,2.0,0.0,90,0.00,,OVC003,0.00,VWS V14.01,2013-10-20 03:10:00,
2013-10-19 23:15:00,45.7,42.9,29.74,WNW,297,2.0,0.0,90,0.00,,OVC003,0.00,VWS V14.01,2013-10-20 03:15:00,
2013-10-19 23:20:00,45.7,42.9,29.74,WNW,297,2.0,0.0,90,0.00,,OVC003,0.00,VWS V14.01,2013-10-20 03:20:00,
2013-10-19 23:25:00,45.7,42.9,29.74,WNW,297,2.0,0.0,90,0.00,,OVC003,0.00,VWS V14.01,2013-10-20 03:25:00,
2013-10-19 23:30:00,45.7,42.9,29.74,WNW,297,2.0,0.0,90,0.00,,OVC003,0.00,VWS V14.01,2013-10-20 03:30:00,
2013-10-19 23:35:00,45.7,42.9,29.74,WNW,297,2.0,0.0,90,0.00,,OVC003,0.00,VWS V14.01,2013-10-20 03:35:00,
2013-10-19 23:40:00,45.7,42.9,29.74,WNW,297,2.0,0.0,90,0.00,,OVC003,0.00,VWS V14.01,2013-10-20 03:40:00,
2013-10-19 23:45:00,45.7,42.9,29.74,WNW,297,2.0,0.0,90,0.00,,OVC003,0.00,VWS V14.01,2013-10-20 03:45:00,
2013-10-19 23:50:00,45.7,42.9,29.74,WNW,297,2.0,0.0,90,0.00,,OVC003,0.00,VWS V14.01,2013-10-20 03:50:00,
2013-10-19 23:55:00,45.7,42.9,29.74,WNW,297,2.0,0.0,90,0.00,,OVC003,0.00,VWS V14.01,2013-10-20 03:55:00,